Location: Newark
(35.8967°N, 14.4625°E)
Time: 16:17:34
(UTC+00:00)

N. Korean satellite - Visible Passes

Search period start: 19 October 2019 00:00
Search period end: 29 October 2019 00:00
Orbit: 455 x 508 km, 97.2° (Epoch: 19 October)

Date Brightness Start Highest point End Pass type
(mag) Time Alt. Az. Time Alt. Az. Time Alt. Az.
20 Oct 9.6 16:57:53 10° SW 17:00:29 20° W 17:03:06 10° NW visible
21 Oct 8.7 04:26:00 10° NNE 04:29:18 33° E 04:32:39 10° SSE visible
22 Oct 10.1 04:01:38 10° NE 04:03:54 16° E 04:06:12 10° SE visible
23 Oct 10.3 17:16:43 10° WSW 17:18:02 12° W 17:19:22 10° WNW visible
24 Oct 7.3 04:43:11 10° NNE 04:46:49 60° E 04:50:27 10° S visible
24 Oct 9.1 16:49:41 10° SSW 16:52:35 26° W 16:55:31 10° NW visible
25 Oct 9.1 04:18:19 10° NE 04:21:27 26° E 04:24:36 10° SSE visible
26 Oct 10.3 03:54:20 10° ENE 03:56:01 13° E 03:57:42 10° ESE visible
27 Oct 10.0 17:08:02 10° SW 17:10:06 15° W 17:12:10 10° WNW visible
28 Oct 7.9 04:35:23 10° NNE 04:38:56 46° E 04:42:31 10° S visible
28 Oct 8.6 16:41:31 10° SSW 16:44:39 33° W 16:47:50 10° NNW visible
